Regional Weather Roundup
Issued by NWS

Home | Current Version | Previous Version | Text Only | Print | Product List | Glossary Off
Versions: 1 2 3 4 5 6 7 8 9 10 11 12 13 14 15 16 17 18 19 20 21 22 23 24 25 26 27 28 29 30 31 32 33 34 35 36 37 38 39 40 41 42 43 44 45 46 47 48 49 50

000
ASUS44 KFWD 271310
RWRTX
NORTH TEXAS HOURLY WEATHER ROUNDUP
NATIONAL WEATHER SERVICE FORT WORTH TX
800 AM CDT WED MAY 27 2015

NOTE: "FAIR" INDICATES FEW OR NO CLOUDS BELOW 12,000 FEET WITH NO
SIGNIFICANT WEATHER AND/OR OBSTRUCTIONS TO VISIBILITY.

TXZ118-119-271400-
DALLAS/FORT WORTH METROPLEX

CITY           SKY/WX    TMP DP  RH WIND       PRES   REMARKS
DFW AIRPORT    MOSUNNY   64  60  87 S5        30.04R
DALLAS LOVE    PTSUNNY   68  61  78 SW3       30.05R
FTW MEACHAM    SUNNY     67  62  84 S6        30.04R
DAL-EXECUTIVE  MOSUNNY   63  59  87 CALM      30.04R
FTW-ALLIANCE   MOSUNNY   66  62  87 S3        30.04R
FTW-NAS-JRB    MOSUNNY   67  61  81 SE6       30.05R
FTW-SPINKS     SUNNY     64  63  94 CALM      30.07R
ARLINGTON      MOSUNNY   66  59  78 S3        30.04R
ADDISON        MOSUNNY   68  59  73 CALM      30.06R
MESQUITE       SUNNY     64  63  94 SW5       30.05R
LANCASTER      PTSUNNY   66  60  82 CALM      30.05R
$$

TXZ091>094-102>105-117-120-121-131>134-271400-
NORTH CENTRAL TEXAS

CITY           SKY/WX    TMP DP  RH WIND       PRES   REMARKS
SHRMAN/DENISON SUNNY     67  64  90 CALM      30.08R
GAINESVILLE    SUNNY     66  60  82 CALM      30.08R
BOWIE          SUNNY     64  62  94 CALM      30.05R
BRIDGEPORT     SUNNY     64  64  99 CALM      30.06R
DECATUR        SUNNY     65  57  75 SW7       30.05R
DENTON         SUNNY     65  61  87 NE3       30.05R
MCKINNEY       MOSUNNY   68  61  78 N3        30.07R
GREENVILLE     PTSUNNY   66  59  77 CALM      30.07R
ROCKWALL       MOSUNNY  N/A N/A N/A CALM      30.05R
TERRELL        PTSUNNY   65  62  90 NW3       30.07R
WAXAHACHIE     MOSUNNY   65  63  91 S6        30.06S
CLEBURNE       SUNNY     66  64  94 SE7       30.07R
GRANBURY       SUNNY     69  62  78 E3        30.06R
$$

TXZ083>090-098>101-113>116-127>130-139>142-154-155-271400-
WESTERN NORTH TEXAS

CITY           SKY/WX    TMP DP  RH WIND       PRES   REMARKS
WICHITA FALLS  MOSUNNY   66  62  87 NE5       30.05R
WF-KICKAPOO    SUNNY     67  62  82 NE3       30.07R
VERNON         CLOUDY    66  60  80 E7        30.06R
ABILENE        PTSUNNY   70  67  90 S15       30.03S
ABILENE-DYESS  CLOUDY    72  64  78 S13       30.02S
BRECKENRIDGE   SUNNY     69  64  84 S5        30.03S
GRAHAM         SUNNY     67  62  86 SE3       30.02S
MINERAL WELLS  SUNNY     65  60  84 S8        30.03R
STEPHENVILLE   SUNNY     65  61  88 CALM      30.08R
COMANCHE       SUNNY     67  67 100 S5        30.04R
BROWNWOOD      MOSUNNY   66  64  94 S8        30.05S
COLEMAN        PTSUNNY   68  65  89 S9        30.05S
BRADY          CLOUDY    72  70  94 SE8       30.05R
$$

TXZ143>147-156>162-174-175-271400-
CENTRAL TEXAS

CITY           SKY/WX    TMP DP  RH WIND       PRES   REMARKS
WACO           MOSUNNY   66  64  93 SE7       30.06R
WACO-TSTC      SUNNY     66  64  94 SE6       30.06R
WACO-MCGREGOR    N/A    N/A N/A N/A MISG        N/A
HILLSBORO      MOSUNNY  N/A N/A N/A SE7       30.06R
CORSICANA      CLOUDY    67  62  84 S9        30.06R
MEXIA          CLOUDY    65  63  91 E9        30.06S
HEARNE         PTSUNNY   65  64  97 CALM      30.08R
CAMERON        MOSUNNY   67  65  93 SE5       30.06R
TEMPLE         MOSUNNY   64  61  88 NE6       30.07R
KILLEEN        PTSUNNY   68  66  94 SE6       30.05R
KILLEEN-SKYLRK SUNNY     66  63  88 S6        30.06R
FORT HOOD      SUNNY     66  65  96 SE3       30.06R
GATESVILLE     SUNNY     66  66 100 E6        30.09R
HAMILTON       SUNNY     68  68 100 S9        30.06R
LAMPASAS       RAIN      71  68  90 S5        30.04S VSB<1/4
$$

TXZ095>097-106>112-122>126-135>138-148>153-164>167-271400-
EAST TEXAS

CITY           SKY/WX    TMP DP  RH WIND       PRES   REMARKS
PARIS          MOSUNNY   68  57  68 SE8       30.07R
SULPHUR SPRNGS PTSUNNY   66  63  88 E7        30.08R
MOUNT PLEASANT PTSUNNY   67  60  79 NW5       30.07R
GILMER         CLOUDY    64  63  97 CALM      30.04R
TYLER          CLOUDY    66  61  84 CALM      30.04R
LONGVIEW       CLOUDY    66  63  90 CALM      30.03R
MARSHALL       CLOUDY    68  65  90 NE3       30.06R
ATHENS         CLOUDY    63  61  94 CALM      30.03R
PALESTINE      CLOUDY    65  62  91 S6        30.07R
JACKSONVILLE   CLOUDY    66  61  84 S7        30.06R
NACOGDOCHES    CLOUDY    64  63  94 SE3       30.05S
LUFKIN         CLOUDY    67  63  87 CALM      30.06R
$$

SUPPLEMENTAL OBSERVATIONS (CENTRAL)

CITY           SKY/WX    TMP DP  RH WIND       PRES   REMARKS
CADDO GRASSLND   N/A     70  66  88 S2          N/A
PAT MAYSE LAKE   N/A     68  63  83 SE2         N/A
GREENVILLE       N/A     66  59  77 E6          N/A
CEDAR HILL       N/A     68  61  77 S5          N/A
MCGREGOR         N/A     66  61  82 SE6         N/A
TEMPLE           N/A     66  63  88 E6          N/A
$$

SUPPLEMENTAL OBSERVATIONS (WEST)

CITY           SKY/WX    TMP DP  RH WIND       PRES   REMARKS
MILLERS CREEK    N/A     70  63  78 SW2         N/A
POSSUM KINGDOM   N/A     70  63  78 SW2         N/A
LBJ GRASSLAND    N/A     66  61  82 S5          N/A
GRANBURY         N/A     70  63  78 E3          N/A
HAMBY            N/A     70  66  88 S12         N/A
IVIE RESERVOIR   N/A     72  68  88 SE5         N/A
COLORADO BEND    N/A     72  68  88 SW8         N/A
$$

SUPPLEMENTAL OBSERVATIONS (EAST)

CITY           SKY/WX    TMP DP  RH WIND       PRES   REMARKS
CLARKSVILLE      N/A     70  64  83 S1          N/A
TEXARKANA        N/A     68  64  88 CALM        N/A
LINDEN           N/A     64  61  88 E6          N/A
GILMER           N/A     64  61  88 N1          N/A
HENDERSON        N/A     64  59  82 S3          N/A
LUFKIN           N/A     64  61  88 MISG        N/A
N SABINE NF      N/A     66  64  94 MISG        N/A
S SABINE NF      N/A     64  63  94 CALM        N/A
$$

SUPPLEMENTAL OBSERVATIONS ARE A COLLECTION OF AUTOMATED INSTRUMENTS
THAT ARE MAINTAINED BY A VARIETY OF FEDERAL AND STATE AGENCIES.
CERTAIN ELEMENTS...SUCH AS HUMIDITY VALUES AND SUSTAINED WIND
SPEEDS...MAY BE APPROXIMATED.




USA.gov is the U.S. government's official web portal to all federal, state and local government web resources and services.